User: anonymous
Location: Caltech
(34.1382°N, 118.1253°W)
Time: 19:54:59
(UTC-07:00)
Language:

ATLAS 5 CENTAUR R/B - Orbit

View from above orbital plane
View from above orbital plane
View from above satellite
View from above satellite

Ground track
Ground track

The orbit data is extracted from the following two-line orbital elements,

1 30778U 07006G   14258.08647709  .00073375  00000-0  85228-3 0   870
2 30778 035.6822 262.6044 0009088 280.5961 124.9296 15.60524762418917
Epoch (UTC): 15 September 2014 02:04:31
Eccentricity: 0.0009088
inclination: 35.6822°
perigee height: 380 km
apogee height: 392 km
right ascension of ascending node: 262.6044°
argument of perigee: 280.5961°
revolutions per day: 15.60524762
mean anomaly at epoch: 124.9296°
orbit number at epoch: 41891

The dashed part of the orbit path shows where the satellite is in the earth's shadow,  

DLR